Time,TemperatureF,DewpointF,PressureIn,WindDirection,WindDirectionDegrees,WindSpeedMPH,WindSpeedGustMPH,Humidity,HourlyPrecipIn,Conditions,Clouds,dailyrainin,SoftwareType,DateUTC
2013-11-16 00:13:00,58.0,57.0,30.09,ENE,67,0.0,3.0,95,0.00,,,0.01,,2013-11-16 06:13:00,
2013-11-16 00:22:00,58.0,57.0,30.09,ENE,58,0.0,3.0,95,0.00,,,0.01,,2013-11-16 06:22:00,
2013-11-16 00:42:00,58.0,57.0,30.09,ENE,77,1.0,2.0,95,0.00,,,0.01,,2013-11-16 06:42:00,
2013-11-16 00:52:00,58.0,57.0,30.09,ESE,115,0.0,2.0,95,0.00,,,0.01,,2013-11-16 06:52:00,
2013-11-16 01:22:00,58.0,57.0,30.08,ENE,71,0.0,2.0,95,0.00,,,0.01,,2013-11-16 07:22:00,
2013-11-16 01:42:00,58.0,57.0,30.08,East,89,1.0,3.0,95,0.00,,,0.01,,2013-11-16 07:42:00,
2013-11-16 01:52:00,58.0,57.0,30.08,East,81,1.0,3.0,95,0.00,,,0.01,,2013-11-16 07:52:00,
2013-11-16 02:12:00,58.0,57.0,30.07,ENE,75,0.0,4.0,95,0.00,,,0.01,,2013-11-16 08:12:00,
2013-11-16 02:22:00,58.0,57.0,30.08,ENE,75,1.0,3.0,95,0.00,,,0.01,,2013-11-16 08:22:00,
2013-11-16 02:42:00,58.0,57.0,30.08,ENE,73,1.0,3.0,96,0.00,,,0.01,,2013-11-16 08:42:00,
2013-11-16 02:52:00,58.0,57.0,30.07,ESE,117,1.0,4.0,96,0.00,,,0.01,,2013-11-16 08:52:00,
2013-11-16 03:11:00,57.0,56.0,30.07,ENE,65,1.0,3.0,96,0.00,,,0.01,,2013-11-16 09:11:00,
2013-11-16 03:22:00,57.0,56.0,30.07,ESE,113,1.0,4.0,97,0.00,,,0.01,,2013-11-16 09:22:00,
2013-11-16 03:43:00,56.0,55.0,30.07,ENE,78,0.0,3.0,97,0.00,,,0.01,,2013-11-16 09:43:00,
2013-11-16 03:53:00,56.0,55.0,30.07,East,85,0.0,3.0,97,0.00,,,0.01,,2013-11-16 09:53:00,
2013-11-16 04:13:00,56.0,55.0,30.07,East,83,0.0,2.0,97,0.00,,,0.01,,2013-11-16 10:13:00,
2013-11-16 04:23:00,55.0,54.0,30.07,NE,41,0.0,2.0,97,0.00,,,0.01,,2013-11-16 10:23:00,
2013-11-16 04:43:00,55.0,54.0,30.07,East,90,0.0,2.0,97,0.00,,,0.01,,2013-11-16 10:43:00,
2013-11-16 04:52:00,55.0,54.0,30.07,ENE,77,1.0,2.0,98,0.00,,,0.01,,2013-11-16 10:52:00,
2013-11-16 05:12:00,56.0,55.0,30.07,East,88,1.0,4.0,98,0.00,,,0.01,,2013-11-16 11:12:00,
2013-11-16 05:22:00,56.0,55.0,30.07,ENE,63,1.0,4.0,98,0.00,,,0.01,,2013-11-16 11:22:00,
2013-11-16 05:42:00,56.0,55.0,30.07,East,86,2.0,5.0,98,0.00,,,0.01,,2013-11-16 11:42:00,
2013-11-16 05:53:00,56.0,55.0,30.08,ENE,78,1.0,4.0,98,0.00,,,0.01,,2013-11-16 11:53:00,
2013-11-16 06:12:00,56.0,55.0,30.08,East,84,2.0,4.0,98,0.00,,,0.01,,2013-11-16 12:12:00,
2013-11-16 06:22:00,56.0,55.0,30.08,ENE,65,0.0,3.0,98,0.00,,,0.01,,2013-11-16 12:22:00,
2013-11-16 06:42:00,56.0,55.0,30.09,East,86,0.0,4.0,98,0.00,,,0.01,,2013-11-16 12:42:00,
2013-11-16 06:52:00,56.0,55.0,30.09,East,93,1.0,4.0,98,0.00,,,0.01,,2013-11-16 12:52:00,
2013-11-16 07:11:00,56.0,55.0,30.09,East,89,1.0,4.0,98,0.00,,,0.01,,2013-11-16 13:11:00,
2013-11-16 07:22:00,57.0,56.0,30.09,ENE,67,1.0,4.0,98,0.00,,,0.01,,2013-11-16 13:22:00,
2013-11-16 07:42:00,57.0,57.0,30.10,ESE,113,1.0,5.0,99,0.00,,,0.01,,2013-11-16 13:42:00,
2013-11-16 07:52:00,57.0,57.0,30.10,ENE,60,3.0,5.0,99,0.00,,,0.01,,2013-11-16 13:52:00,
2013-11-16 08:11:00,57.0,57.0,30.10,NE,56,1.0,6.0,99,0.00,,,0.01,,2013-11-16 14:11:00,
2013-11-16 08:22:00,58.0,58.0,30.11,East,94,1.0,6.0,99,0.00,,,0.01,,2013-11-16 14:22:00,
2013-11-16 08:42:00,58.0,58.0,30.11,ENE,78,1.0,6.0,99,0.00,,,0.01,,2013-11-16 14:42:00,
2013-11-16 08:52:00,59.0,59.0,30.11,ENE,68,1.0,4.0,99,0.00,,,0.01,,2013-11-16 14:52:00,
2013-11-16 09:22:00,59.0,59.0,30.12,ENE,62,2.0,5.0,99,0.00,,,0.01,,2013-11-16 15:22:00,
2013-11-16 09:43:00,60.0,60.0,30.12,ENE,76,2.0,4.0,99,0.00,,,0.01,,2013-11-16 15:43:00,
2013-11-16 09:53:00,60.0,59.0,30.12,NE,51,2.0,7.0,98,0.00,,,0.01,,2013-11-16 15:53:00,
2013-11-16 10:13:00,61.0,60.0,30.12,ESE,122,3.0,6.0,98,0.00,,,0.01,,2013-11-16 16:13:00,
2013-11-16 10:23:00,62.0,61.0,30.13,ESE,103,3.0,5.0,95,0.00,,,0.01,,2013-11-16 16:23:00,
2013-11-16 10:43:00,63.0,61.0,30.12,NE,40,1.0,4.0,93,0.00,,,0.00,,2013-11-16 16:43:00,
2013-11-16 10:53:00,64.0,62.0,30.11,ENE,68,1.0,5.0,92,0.00,,,0.00,,2013-11-16 16:53:00,
2013-11-16 11:13:00,64.0,61.0,30.11,SE,139,0.0,5.0,91,0.00,,,0.00,,2013-11-16 17:13:00,
2013-11-16 11:23:00,67.0,63.0,30.10,ENE,68,3.0,6.0,86,0.00,,,0.00,,2013-11-16 17:23:00,
2013-11-16 11:43:00,69.0,63.0,30.09,ESE,108,2.0,7.0,81,0.00,,,0.00,,2013-11-16 17:43:00,
2013-11-16 11:52:00,69.0,63.0,30.08,ESE,104,2.0,6.0,80,0.00,,,0.00,,2013-11-16 17:52:00,
2013-11-16 12:12:00,69.0,63.0,30.07,ENE,68,0.0,4.0,82,0.00,,,0.00,,2013-11-16 18:12:00,
2013-11-16 12:23:00,71.0,64.0,30.07,ENE,72,2.0,5.0,78,0.00,,,0.00,,2013-11-16 18:23:00,
2013-11-16 12:42:00,72.0,64.0,30.06,East,82,2.0,6.0,76,0.00,,,0.00,,2013-11-16 18:42:00,
2013-11-16 12:52:00,74.0,65.0,30.05,ENE,61,1.0,6.0,73,0.00,,,0.00,,2013-11-16 18:52:00,
2013-11-16 13:12:00,74.0,65.0,30.04,NE,56,1.0,6.0,73,0.00,,,0.00,,2013-11-16 19:12:00,
2013-11-16 13:22:00,74.0,64.0,30.03,East,99,1.0,7.0,71,0.00,,,0.00,,2013-11-16 19:22:00,
2013-11-16 13:42:00,75.0,64.0,30.03,North,353,2.0,5.0,69,0.00,,,0.00,,2013-11-16 19:42:00,
2013-11-16 13:53:00,75.0,64.0,30.02,ENE,77,2.0,6.0,69,0.00,,,0.00,,2013-11-16 19:53:00,
2013-11-16 14:12:00,74.0,64.0,30.02,East,87,3.0,5.0,70,0.00,,,0.00,,2013-11-16 20:12:00,
2013-11-16 14:22:00,74.0,64.0,30.02,ENE,57,2.0,5.0,70,0.00,,,0.00,,2013-11-16 20:22:00,
2013-11-16 14:42:00,74.0,64.0,30.02,ESE,116,0.0,5.0,70,0.00,,,0.00,,2013-11-16 20:42:00,
2013-11-16 15:22:00,74.0,64.0,30.01,SE,131,0.0,4.0,71,0.00,,,0.00,,2013-11-16 21:22:00,
2013-11-16 15:44:00,74.0,65.0,30.01,East,91,0.0,1.0,74,0.00,,,0.00,,2013-11-16 21:44:00,
2013-11-16 15:54:00,74.0,65.0,30.01,ESE,113,0.0,2.0,73,0.00,,,0.00,,2013-11-16 21:54:00,
2013-11-16 16:13:00,73.0,64.0,30.01,ENE,75,1.0,4.0,74,0.00,,,0.00,,2013-11-16 22:13:00,
2013-11-16 16:24:00,72.0,64.0,30.01,East,91,0.0,3.0,76,0.00,,,0.00,,2013-11-16 22:24:00,
2013-11-16 16:42:00,72.0,64.0,30.01,East,84,0.0,4.0,75,0.00,,,0.00,,2013-11-16 22:42:00,
2013-11-16 16:53:00,72.0,64.0,30.01,East,89,0.0,2.0,76,0.00,,,0.00,,2013-11-16 22:53:00,
2013-11-16 17:13:00,71.0,63.0,30.01,NE,51,0.0,3.0,77,0.00,,,0.00,,2013-11-16 23:13:00,
2013-11-16 17:22:00,71.0,64.0,30.01,ENE,70,0.0,3.0,78,0.00,,,0.00,,2013-11-16 23:22:00,
2013-11-16 17:43:00,71.0,64.0,30.02,SE,127,0.0,3.0,78,0.00,,,0.00,,2013-11-16 23:43:00,
2013-11-16 17:53:00,70.0,63.0,30.02,ENE,68,0.0,2.0,79,0.00,,,0.00,,2013-11-16 23:53:00,
2013-11-16 18:12:00,70.0,63.0,30.02,East,79,0.0,2.0,79,0.00,,,0.00,,2013-11-17 00:12:00,
2013-11-16 18:22:00,70.0,64.0,30.03,NE,56,0.0,1.0,80,0.00,,,0.00,,2013-11-17 00:22:00,
2013-11-16 18:42:00,69.0,63.0,30.03,ENE,65,0.0,1.0,80,0.00,,,0.00,,2013-11-17 00:42:00,
2013-11-16 18:52:00,69.0,63.0,30.04,ENE,75,0.0,1.0,81,0.00,,,0.00,,2013-11-17 00:52:00,
2013-11-16 19:22:00,69.0,63.0,30.04,East,81,0.0,1.0,81,0.00,,,0.00,,2013-11-17 01:22:00,
2013-11-16 19:42:00,69.0,63.0,30.04,East,79,0.0,2.0,82,0.00,,,0.00,,2013-11-17 01:42:00,
2013-11-16 19:52:00,69.0,63.0,30.04,ENE,74,0.0,3.0,82,0.00,,,0.00,,2013-11-17 01:52:00,
2013-11-16 20:12:00,68.0,62.0,30.04,East,82,0.0,1.0,82,0.00,,,0.00,,2013-11-17 02:12:00,
2013-11-16 20:22:00,68.0,63.0,30.04,ENE,68,0.0,2.0,83,0.00,,,0.00,,2013-11-17 02:22:00,
2013-11-16 20:52:00,69.0,63.0,30.05,ESE,105,0.0,3.0,82,0.00,,,0.00,,2013-11-17 02:52:00,
2013-11-16 21:22:00,69.0,64.0,30.05,SE,131,0.0,3.0,83,0.00,,,0.00,,2013-11-17 03:22:00,
2013-11-16 21:56:00,68.0,63.0,30.06,ESE,109,0.0,4.0,84,0.00,,,0.00,,2013-11-17 03:56:00,
2013-11-16 22:03:00,-999.0,-99.9,30.05,SE,136,0.0,2.0,-999,-99.99,,,-99.99,,2013-11-17 04:03:00,
2013-11-16 22:24:00,68.0,64.0,30.05,East,91,0.0,2.0,86,0.00,,,0.00,,2013-11-17 04:24:00,
2013-11-16 22:43:00,68.0,64.0,30.05,SE,138,0.0,2.0,87,0.00,,,0.00,,2013-11-17 04:43:00,
2013-11-16 22:53:00,68.0,64.0,30.05,ENE,69,0.0,3.0,88,0.00,,,0.00,,2013-11-17 04:53:00,
2013-11-16 23:13:00,67.0,63.0,30.05,East,93,0.0,2.0,88,0.00,,,0.00,,2013-11-17 05:13:00,
2013-11-16 23:23:00,67.0,64.0,30.04,ESE,120,0.0,2.0,89,0.00,,,0.00,,2013-11-17 05:23:00,
2013-11-16 23:44:00,67.0,64.0,30.04,East,94,0.0,1.0,89,0.00,,,0.00,,2013-11-17 05:44:00,
2013-11-16 23:53:00,67.0,64.0,30.04,East,84,0.0,2.0,89,0.00,,,0.00,,2013-11-17 05:53:00,